Time,TemperatureF,DewpointF,PressureIn,WindDirection,WindDirectionDegrees,WindSpeedMPH,WindSpeedGustMPH,Humidity,HourlyPrecipIn,Conditions,Clouds,dailyrainin,SoftwareType,DateUTC
2013-03-01 00:02:00,63.0,57.0,29.91,NE,45,0.0,0.0,81,0.00,,,0.00,,2013-03-01 06:02:00,
2013-03-01 00:12:00,63.0,57.0,29.90,NE,45,0.0,0.0,81,0.00,,,0.00,,2013-03-01 06:12:00,
2013-03-01 00:22:00,63.0,57.0,29.90,NE,45,0.0,0.0,81,0.00,,,0.00,,2013-03-01 06:22:00,
2013-03-01 00:32:00,63.0,57.0,29.91,NE,45,0.0,0.0,80,0.00,,,0.00,,2013-03-01 06:32:00,
2013-03-01 00:42:00,63.0,57.0,29.91,NE,45,0.0,0.0,80,0.00,,,0.00,,2013-03-01 06:42:00,
2013-03-01 00:53:00,63.0,57.0,29.90,NE,45,0.0,0.0,81,0.00,,,0.00,,2013-03-01 06:53:00,
2013-03-01 01:02:00,63.0,57.0,29.91,NE,45,0.0,0.0,81,0.00,,,0.00,,2013-03-01 07:02:00,
2013-03-01 01:12:00,63.0,57.0,29.91,NE,45,0.0,0.0,81,0.00,,,0.00,,2013-03-01 07:12:00,
2013-03-01 01:22:00,63.0,57.0,29.90,NE,45,0.0,0.0,81,0.00,,,0.00,,2013-03-01 07:22:00,
2013-03-01 01:32:00,63.0,57.0,29.90,NE,45,0.0,0.0,80,0.00,,,0.00,,2013-03-01 07:32:00,
2013-03-01 01:42:00,63.0,57.0,29.90,NE,45,0.0,0.0,80,0.00,,,0.00,,2013-03-01 07:42:00,
2013-03-01 01:52:00,63.0,57.0,29.89,NE,45,0.0,0.0,80,0.00,,,0.00,,2013-03-01 07:52:00,
2013-03-01 02:02:00,63.0,57.0,29.89,East,90,0.0,0.0,81,0.00,,,0.00,,2013-03-01 08:02:00,
2013-03-01 02:12:00,63.0,57.0,29.89,East,90,0.0,0.0,81,0.00,,,0.00,,2013-03-01 08:12:00,
2013-03-01 02:22:00,63.0,57.0,29.89,East,90,0.0,0.0,81,0.00,,,0.00,,2013-03-01 08:22:00,
2013-03-01 02:32:00,63.0,58.0,29.89,NNE,23,1.0,2.0,83,0.00,,,0.00,,2013-03-01 08:32:00,
2013-03-01 02:42:00,63.0,58.0,29.89,NNE,23,1.0,2.0,83,0.00,,,0.00,,2013-03-01 08:42:00,
2013-03-01 02:52:00,63.0,58.0,29.89,East,79,2.0,3.0,83,0.00,,,0.00,,2013-03-01 08:52:00,
2013-03-01 03:02:00,62.0,56.0,29.89,NNE,29,2.0,3.0,82,0.00,,,0.00,,2013-03-01 09:02:00,
2013-03-01 03:12:00,62.0,56.0,29.89,NNE,29,2.0,3.0,82,0.00,,,0.00,,2013-03-01 09:12:00,
2013-03-01 03:22:00,62.0,57.0,29.89,NE,45,0.0,1.0,83,0.00,,,0.00,,2013-03-01 09:22:00,
2013-03-01 03:32:00,62.0,57.0,29.89,ENE,64,1.0,2.0,83,0.00,,,0.00,,2013-03-01 09:32:00,
2013-03-01 03:42:00,62.0,57.0,29.89,ENE,64,1.0,2.0,83,0.00,,,0.00,,2013-03-01 09:42:00,
2013-03-01 03:52:00,61.0,56.0,29.89,NNE,23,0.0,1.0,83,0.00,,,0.00,,2013-03-01 09:52:00,
2013-03-01 04:02:00,61.0,56.0,29.89,ENE,68,1.0,1.0,83,0.00,,,0.00,,2013-03-01 10:02:00,
2013-03-01 04:11:00,61.0,56.0,29.89,ENE,68,1.0,1.0,83,0.00,,,0.00,,2013-03-01 10:11:00,
2013-03-01 04:22:00,61.0,56.0,29.89,ENE,68,1.0,3.0,83,0.00,,,0.00,,2013-03-01 10:22:00,
2013-03-01 04:32:00,61.0,56.0,29.89,ENE,68,0.0,1.0,83,0.00,,,0.00,,2013-03-01 10:32:00,
2013-03-01 04:42:00,61.0,56.0,29.89,ENE,68,0.0,1.0,83,0.00,,,0.00,,2013-03-01 10:42:00,
2013-03-01 04:53:00,61.0,55.0,29.90,ENE,68,0.0,2.0,82,0.00,,,0.00,,2013-03-01 10:53:00,
2013-03-01 05:01:00,61.0,55.0,29.90,NE,45,0.0,2.0,82,0.00,,,0.00,,2013-03-01 11:01:00,
2013-03-01 05:11:00,61.0,55.0,29.90,NE,45,0.0,2.0,82,0.00,,,0.00,,2013-03-01 11:11:00,
2013-03-01 05:22:00,61.0,55.0,29.89,ESE,113,0.0,1.0,82,0.00,,,0.00,,2013-03-01 11:22:00,
2013-03-01 05:32:00,61.0,55.0,29.90,NE,41,1.0,2.0,82,0.00,,,0.00,,2013-03-01 11:32:00,
2013-03-01 05:42:00,61.0,55.0,29.90,NE,41,1.0,2.0,82,0.00,,,0.00,,2013-03-01 11:42:00,
2013-03-01 05:52:00,61.0,55.0,29.91,NNE,23,1.0,1.0,82,0.00,,,0.00,,2013-03-01 11:52:00,
2013-03-01 06:02:00,60.0,54.0,29.91,NNE,32,1.0,1.0,82,0.00,,,0.00,,2013-03-01 12:02:00,
2013-03-01 06:11:00,60.0,54.0,29.91,NNE,32,1.0,1.0,82,0.00,,,0.00,,2013-03-01 12:11:00,
2013-03-01 06:21:00,60.0,54.0,29.92,NE,47,1.0,2.0,82,0.00,,,0.00,,2013-03-01 12:21:00,
2013-03-01 06:32:00,60.0,54.0,29.92,ENE,60,2.0,3.0,81,0.00,,,0.00,,2013-03-01 12:32:00,
2013-03-01 06:42:00,60.0,54.0,29.92,ENE,60,2.0,3.0,81,0.00,,,0.00,,2013-03-01 12:42:00,
2013-03-01 06:52:00,60.0,53.0,29.93,ENE,59,2.0,2.0,79,0.00,,,0.00,,2013-03-01 12:52:00,
2013-03-01 07:01:00,60.0,53.0,29.92,NE,45,1.0,1.0,79,0.00,,,0.00,,2013-03-01 13:01:00,
2013-03-01 07:11:00,60.0,53.0,29.93,NE,55,1.0,1.0,79,0.00,,,0.00,,2013-03-01 13:11:00,
2013-03-01 07:22:00,60.0,53.0,29.93,NE,55,1.0,1.0,79,0.00,,,0.00,,2013-03-01 13:22:00,
2013-03-01 07:32:00,61.0,54.0,29.93,ENE,68,2.0,3.0,79,0.00,,,0.00,,2013-03-01 13:32:00,
2013-03-01 07:42:00,61.0,54.0,29.93,ENE,68,2.0,3.0,79,0.00,,,0.00,,2013-03-01 13:42:00,
2013-03-01 07:52:00,61.0,54.0,29.94,NNE,27,1.0,3.0,78,0.00,,,0.00,,2013-03-01 13:52:00,
2013-03-01 08:01:00,61.0,54.0,29.94,NE,56,1.0,3.0,78,0.00,,,0.00,,2013-03-01 14:01:00,
2013-03-01 08:11:00,61.0,54.0,29.94,NE,56,1.0,3.0,78,0.00,,,0.00,,2013-03-01 14:11:00,
2013-03-01 08:21:00,61.0,53.0,29.94,NNE,19,1.0,4.0,76,0.00,,,0.00,,2013-03-01 14:21:00,
2013-03-01 08:32:00,61.0,52.0,29.95,NNE,23,2.0,4.0,73,0.00,,,0.00,,2013-03-01 14:32:00,
2013-03-01 08:42:00,61.0,52.0,29.95,NNE,23,2.0,4.0,73,0.00,,,0.00,,2013-03-01 14:42:00,
2013-03-01 08:52:00,61.0,52.0,29.95,NE,40,2.0,3.0,73,0.00,,,0.00,,2013-03-01 14:52:00,
2013-03-01 09:02:00,61.0,52.0,29.95,ENE,63,1.0,2.0,73,0.00,,,0.00,,2013-03-01 15:02:00,
2013-03-01 09:11:00,63.0,54.0,29.95,NNE,24,1.0,4.0,72,0.00,,,0.00,,2013-03-01 15:11:00,
2013-03-01 09:21:00,63.0,54.0,29.95,NNE,24,1.0,4.0,72,0.00,,,0.00,,2013-03-01 15:21:00,
2013-03-01 09:32:00,64.0,54.0,29.95,NNE,23,1.0,3.0,70,0.00,,,0.00,,2013-03-01 15:32:00,
2013-03-01 09:42:00,64.0,54.0,29.95,NNE,23,1.0,3.0,70,0.00,,,0.00,,2013-03-01 15:42:00,
2013-03-01 09:52:00,64.0,54.0,29.95,NNE,32,3.0,3.0,69,0.00,,,0.00,,2013-03-01 15:52:00,
2013-03-01 10:01:00,64.0,54.0,29.95,NE,56,2.0,5.0,69,0.00,,,0.00,,2013-03-01 16:01:00,
2013-03-01 10:11:00,64.0,54.0,29.95,NE,56,2.0,5.0,69,0.00,,,0.00,,2013-03-01 16:11:00,
2013-03-01 10:21:00,65.0,55.0,29.96,North,355,0.0,3.0,70,0.00,,,0.00,,2013-03-01 16:21:00,
2013-03-01 10:32:00,66.0,55.0,29.95,NNE,29,1.0,3.0,68,0.00,,,0.00,,2013-03-01 16:32:00,
2013-03-01 10:42:00,66.0,55.0,29.95,NNE,29,1.0,3.0,68,0.00,,,0.00,,2013-03-01 16:42:00,
2013-03-01 10:52:00,66.0,53.0,29.95,North,0,2.0,3.0,64,0.00,,,0.00,,2013-03-01 16:52:00,
2013-03-01 11:01:00,66.0,54.0,29.95,NNW,342,0.0,3.0,66,0.00,,,0.00,,2013-03-01 17:01:00,
2013-03-01 11:11:00,69.0,55.0,29.95,NW,326,3.0,3.0,62,0.00,,,0.00,,2013-03-01 17:11:00,
2013-03-01 11:21:00,69.0,55.0,29.95,NW,326,3.0,3.0,62,0.00,,,0.00,,2013-03-01 17:21:00,
2013-03-01 11:32:00,68.0,54.0,29.95,North,355,2.0,4.0,62,0.00,,,0.00,,2013-03-01 17:32:00,
2013-03-01 11:42:00,67.0,54.0,29.94,NE,39,1.0,5.0,63,0.00,,,0.00,,2013-03-01 17:42:00,
2013-03-01 11:52:00,67.0,54.0,29.94,NE,39,1.0,5.0,63,0.00,,,0.00,,2013-03-01 17:52:00,
2013-03-01 12:01:00,68.0,55.0,29.94,NW,315,2.0,3.0,63,0.00,,,0.00,,2013-03-01 18:01:00,
2013-03-01 12:12:00,68.0,55.0,29.94,NW,315,2.0,3.0,63,0.00,,,0.00,,2013-03-01 18:12:00,
2013-03-01 12:22:00,68.0,55.0,29.93,ENE,61,1.0,3.0,63,0.00,,,0.00,,2013-03-01 18:22:00,
2013-03-01 12:32:00,68.0,54.0,29.93,NNW,344,1.0,3.0,62,0.00,,,0.00,,2013-03-01 18:32:00,
2013-03-01 12:42:00,70.0,56.0,29.91,NNE,23,2.0,2.0,62,0.00,,,0.00,,2013-03-01 18:42:00,
2013-03-01 12:52:00,70.0,56.0,29.91,NNE,23,2.0,2.0,62,0.00,,,0.00,,2013-03-01 18:52:00,
2013-03-01 13:01:00,69.0,55.0,29.91,WNW,293,1.0,2.0,61,0.00,,,0.00,,2013-03-01 19:01:00,
2013-03-01 13:11:00,69.0,55.0,29.91,WNW,293,1.0,2.0,61,0.00,,,0.00,,2013-03-01 19:11:00,
2013-03-01 13:21:00,68.0,54.0,29.90,West,274,1.0,4.0,61,0.00,,,0.00,,2013-03-01 19:21:00,
2013-03-01 13:32:00,68.0,54.0,29.90,West,270,1.0,3.0,60,0.00,,,0.00,,2013-03-01 19:32:00,
2013-03-01 13:42:00,68.0,54.0,29.90,West,270,1.0,3.0,60,0.00,,,0.00,,2013-03-01 19:42:00,
2013-03-01 13:52:00,68.0,54.0,29.89,NNW,338,2.0,3.0,60,0.00,,,0.00,,2013-03-01 19:52:00,
2013-03-01 14:01:00,67.0,52.0,29.89,NW,323,2.0,4.0,59,0.00,,,0.00,,2013-03-01 20:01:00,
2013-03-01 14:11:00,67.0,52.0,29.89,NW,323,2.0,4.0,59,0.00,,,0.00,,2013-03-01 20:11:00,
2013-03-01 14:21:00,66.0,52.0,29.89,NW,306,1.0,3.0,61,0.00,,,0.00,,2013-03-01 20:21:00,
2013-03-01 14:32:00,66.0,52.0,29.89,NW,324,1.0,4.0,61,0.00,,,0.00,,2013-03-01 20:32:00,
2013-03-01 14:42:00,66.0,52.0,29.89,NW,324,1.0,4.0,61,0.00,,,0.00,,2013-03-01 20:42:00,
2013-03-01 14:52:00,66.0,52.0,29.88,WNW,296,4.0,5.0,61,0.00,,,0.00,,2013-03-01 20:52:00,
2013-03-01 15:01:00,66.0,52.0,29.89,NNW,327,2.0,4.0,61,0.00,,,0.00,,2013-03-01 21:01:00,
2013-03-01 15:11:00,65.0,52.0,29.89,NW,305,5.0,5.0,62,0.00,,,0.00,,2013-03-01 21:11:00,
2013-03-01 15:21:00,65.0,52.0,29.89,NW,305,5.0,5.0,62,0.00,,,0.00,,2013-03-01 21:21:00,
2013-03-01 15:32:00,65.0,52.0,29.89,NNW,328,3.0,5.0,63,0.00,,,0.00,,2013-03-01 21:32:00,
2013-03-01 15:42:00,64.0,52.0,29.90,NW,305,3.0,4.0,64,0.00,,,0.00,,2013-03-01 21:42:00,
2013-03-01 15:52:00,64.0,52.0,29.90,NW,305,3.0,4.0,64,0.00,,,0.00,,2013-03-01 21:52:00,
2013-03-01 16:01:00,64.0,51.0,29.90,WNW,302,4.0,5.0,63,0.00,,,0.00,,2013-03-01 22:01:00,
2013-03-01 16:11:00,63.0,51.0,29.91,WNW,288,2.0,6.0,65,0.00,,,0.00,,2013-03-01 22:11:00,
2013-03-01 16:21:00,63.0,51.0,29.91,WNW,288,2.0,6.0,65,0.00,,,0.00,,2013-03-01 22:21:00,
2013-03-01 16:32:00,63.0,51.0,29.91,NW,315,3.0,5.0,65,0.00,,,0.00,,2013-03-01 22:32:00,
2013-03-01 16:42:00,63.0,51.0,29.91,NW,315,3.0,5.0,65,0.00,,,0.00,,2013-03-01 22:42:00,
2013-03-01 16:52:00,63.0,51.0,29.92,NNW,334,2.0,3.0,66,0.00,,,0.00,,2013-03-01 22:52:00,
2013-03-01 17:01:00,62.0,50.0,29.93,NNW,327,2.0,4.0,65,0.00,,,0.00,,2013-03-01 23:01:00,
2013-03-01 17:11:00,62.0,50.0,29.93,NNW,327,2.0,4.0,65,0.00,,,0.00,,2013-03-01 23:11:00,
2013-03-01 17:21:00,62.0,50.0,29.93,NNW,327,2.0,4.0,65,0.00,,,0.00,,2013-03-01 23:21:00,
2013-03-01 17:32:00,61.0,50.0,29.93,NNW,338,2.0,3.0,66,0.00,,,0.00,,2013-03-01 23:32:00,
2013-03-01 17:41:00,61.0,50.0,29.93,NNW,338,2.0,3.0,66,0.00,,,0.00,,2013-03-01 23:41:00,
2013-03-01 17:52:00,61.0,50.0,29.93,NNE,27,1.0,2.0,66,0.00,,,0.00,,2013-03-01 23:52:00,
2013-03-01 18:02:00,61.0,50.0,29.93,NW,326,1.0,2.0,66,0.00,,,0.00,,2013-03-02 00:02:00,
2013-03-01 18:12:00,61.0,50.0,29.93,NW,326,1.0,2.0,66,0.00,,,0.00,,2013-03-02 00:12:00,
2013-03-01 18:22:00,61.0,50.0,29.93,NW,326,1.0,2.0,66,0.00,,,0.00,,2013-03-02 00:22:00,
2013-03-01 18:32:00,60.0,50.0,29.95,NNE,23,0.0,1.0,70,0.00,,,0.00,,2013-03-02 00:32:00,
2013-03-01 18:42:00,60.0,50.0,29.95,NNE,23,0.0,1.0,70,0.00,,,0.00,,2013-03-02 00:42:00,
2013-03-01 18:52:00,60.0,51.0,29.94,NNE,17,1.0,1.0,71,0.00,,,0.00,,2013-03-02 00:52:00,
2013-03-01 19:01:00,59.0,50.0,29.95,NW,324,2.0,3.0,73,0.00,,,0.00,,2013-03-02 01:01:00,
2013-03-01 19:11:00,59.0,50.0,29.95,NW,324,2.0,3.0,73,0.00,,,0.00,,2013-03-02 01:11:00,
2013-03-01 19:21:00,59.0,50.0,29.95,NW,310,1.0,2.0,73,0.00,,,0.00,,2013-03-02 01:21:00,
2013-03-01 19:32:00,59.0,50.0,29.95,NNW,348,1.0,3.0,73,0.00,,,0.00,,2013-03-02 01:32:00,
2013-03-01 19:41:00,59.0,50.0,29.95,NNW,348,1.0,3.0,73,0.00,,,0.00,,2013-03-02 01:41:00,
2013-03-01 19:51:00,59.0,50.0,29.95,NNW,348,1.0,3.0,73,0.00,,,0.00,,2013-03-02 01:51:00,
2013-03-01 20:01:00,58.0,50.0,29.96,NW,315,1.0,2.0,74,0.00,,,0.00,,2013-03-02 02:01:00,
2013-03-01 20:11:00,58.0,50.0,29.96,NW,315,1.0,2.0,74,0.00,,,0.00,,2013-03-02 02:11:00,
2013-03-01 20:22:00,58.0,50.0,29.97,NNW,338,1.0,2.0,74,0.00,,,0.00,,2013-03-02 02:22:00,
2013-03-01 20:32:00,58.0,49.0,29.97,NW,321,1.0,2.0,73,0.00,,,0.00,,2013-03-02 02:32:00,
2013-03-01 20:42:00,58.0,49.0,29.97,NW,321,1.0,2.0,73,0.00,,,0.00,,2013-03-02 02:42:00,
2013-03-01 20:52:00,58.0,49.0,29.98,North,0,0.0,2.0,73,0.00,,,0.00,,2013-03-02 02:52:00,
2013-03-01 21:02:00,58.0,50.0,29.98,NE,34,0.0,1.0,74,0.00,,,0.00,,2013-03-02 03:02:00,
2013-03-01 21:11:00,58.0,50.0,29.98,NE,34,0.0,1.0,74,0.00,,,0.00,,2013-03-02 03:11:00,
2013-03-01 21:22:00,58.0,50.0,29.98,NNW,346,1.0,2.0,74,0.00,,,0.00,,2013-03-02 03:22:00,
2013-03-01 21:32:00,58.0,49.0,29.97,NW,317,4.0,4.0,73,0.00,,,0.00,,2013-03-02 03:32:00,
2013-03-01 21:42:00,58.0,49.0,29.97,NW,317,4.0,4.0,73,0.00,,,0.00,,2013-03-02 03:42:00,
2013-03-01 21:52:00,58.0,49.0,29.97,NNW,345,1.0,2.0,72,0.00,,,0.00,,2013-03-02 03:52:00,
2013-03-01 22:01:00,58.0,49.0,29.97,NNW,338,0.0,3.0,73,0.00,,,0.00,,2013-03-02 04:01:00,
2013-03-01 22:11:00,58.0,50.0,29.98,North,6,1.0,2.0,74,0.00,,,0.00,,2013-03-02 04:11:00,
2013-03-01 22:22:00,58.0,50.0,29.98,North,6,1.0,2.0,74,0.00,,,0.00,,2013-03-02 04:22:00,
2013-03-01 22:32:00,58.0,50.0,29.97,ESE,113,1.0,1.0,74,0.00,,,0.00,,2013-03-02 04:32:00,
2013-03-01 22:42:00,58.0,50.0,29.97,ESE,113,1.0,1.0,74,0.00,,,0.00,,2013-03-02 04:42:00,
2013-03-01 22:52:00,58.0,50.0,29.97,NNW,342,2.0,3.0,74,0.00,,,0.00,,2013-03-02 04:52:00,
2013-03-01 23:02:00,58.0,49.0,29.97,NNW,342,1.0,4.0,73,0.00,,,0.00,,2013-03-02 05:02:00,
2013-03-01 23:12:00,58.0,49.0,29.97,NNW,342,1.0,4.0,73,0.00,,,0.00,,2013-03-02 05:12:00,
2013-03-01 23:22:00,58.0,49.0,29.97,NNW,342,2.0,3.0,72,0.00,,,0.00,,2013-03-02 05:22:00,
2013-03-01 23:32:00,58.0,49.0,29.97,North,0,2.0,3.0,71,0.00,,,0.00,,2013-03-02 05:32:00,
2013-03-01 23:42:00,58.0,49.0,29.97,North,0,2.0,3.0,71,0.00,,,0.00,,2013-03-02 05:42:00,
2013-03-01 23:52:00,58.0,48.0,29.97,NNE,23,1.0,3.0,70,0.00,,,0.00,,2013-03-02 05:52:00,